Mount Holly, NJ

5:58 AM EDT on September 23, 2019 (GMT -0400)
South Jersey Regional

Weather History for KVAY - August, 2019

Change the Weather History Date:

Sunday, August 25, 2019

  Actual Average (KPNE) Record (KPNE)
Temperature  
Mean Temperature 66 °F -  
Max Temperature 75 °F 81 °F 95 °F (2007)
Min Temperature 57 °F 64 °F 59 °F (2005)
Cooling Degree Days 1    
Growing Degree Days 16 (Base 50)    
Moisture  
Dew Point 57 °F    
Average Humidity 74    
Maximum Humidity 93    
Minimum Humidity 53    
Precipitation  
Precipitation 0.00 in - - ()
Sea Level Pressure  
Sea Level Pressure 30.21 in    
Wind  
Wind Speed 4 mph (NE)    
Max Wind Speed 13 mph    
Max Gust Speed 22 mph    
Visibility 10 miles    
Events      
Averages and records for this station are not official NWS values.
T = Trace of Precipitation, MM = Missing Value Source: NWS Daily Summary

Daily Weather History Graph

Daily Weather History Graph

Search for Another Location

Airport or City:

Astronomy

Aug. 25, 2019 Rise Set
Actual Time 6:20 AM EDT 7:41 PM EDT
Civil Twilight 5:52 AM EDT 8:10 PM EDT
Nautical Twilight 5:18 AM EDT 8:43 PM EDT
Astronomical Twilight 4:42 AM EDT 9:19 PM EDT
Moon 12:53 AM EDT (8/25) 4:00 PM EDT (8/25)
Length of Visible Light 14h 17m
Length of Day
13h 21m
Waning Crescent, 29% of the Moon is Illuminated
Aug 25
Waning Crescent
Aug 30
New
Sep 5
First Quarter
Sep 14
Full
Sep 21
Last Quarter

Hourly Weather History & Observations

Time (EDT) Temp. Dew Point Humidity Pressure Visibility Wind Dir Wind Speed Gust Speed Precip Events Conditions
12:54 AM 57.9 °F 55.9 °F 93% 30.23 in 10.0 mi Calm Calm - N/A   Overcast
1:54 AM 57.0 °F 55.0 °F 93% 30.22 in 10.0 mi Calm Calm - N/A   Partly Cloudy
2:54 AM 57.9 °F 55.9 °F 93% 30.21 in 10.0 mi Calm Calm - N/A   Overcast
3:54 AM 59.0 °F 55.9 °F 90% 30.21 in 10.0 mi Calm Calm - N/A   Partly Cloudy
4:54 AM 60.1 °F 57.0 °F 90% 30.20 in 10.0 mi Calm Calm - N/A   Overcast
5:54 AM 61.0 °F 57.0 °F 87% 30.21 in 10.0 mi NNE 5.8 mph - N/A   Mostly Cloudy
6:54 AM 62.1 °F 57.0 °F 84% 30.22 in 10.0 mi NNE 6.9 mph - N/A   Scattered Clouds
7:54 AM 64.9 °F 57.9 °F 78% 30.23 in 10.0 mi NNE 6.9 mph - N/A   Clear
8:54 AM 68.0 °F 60.1 °F 76% 30.25 in 10.0 mi NNE 6.9 mph - N/A   Partly Cloudy
9:54 AM 69.1 °F 59.0 °F 70% 30.24 in 10.0 mi NNE 10.4 mph - N/A   Mostly Cloudy
10:54 AM 71.1 °F 59.0 °F 66% 30.24 in 10.0 mi NNE 10.4 mph - N/A   Mostly Cloudy
11:54 AM 73.0 °F 57.0 °F 57% 30.24 in 10.0 mi NE 8.1 mph 18.4 mph N/A   Overcast
12:54 PM 73.0 °F 57.0 °F 57% 30.22 in 10.0 mi NE 12.7 mph 21.9 mph N/A   Mostly Cloudy
1:54 PM 73.9 °F 57.0 °F 55% 30.21 in 10.0 mi Variable 4.6 mph - N/A   Scattered Clouds
2:54 PM 75.9 °F 57.9 °F 54% 30.20 in 10.0 mi NE 10.4 mph - N/A   Scattered Clouds
3:54 PM 73.9 °F 55.9 °F 53% 30.19 in 10.0 mi East 8.1 mph 21.9 mph N/A   Scattered Clouds
4:54 PM 73.0 °F 55.9 °F 55% 30.19 in 10.0 mi NE 4.6 mph 17.3 mph N/A   Mostly Cloudy
5:54 PM 73.0 °F 55.0 °F 53% 30.19 in 10.0 mi Variable 5.8 mph - N/A   Mostly Cloudy
6:54 PM 71.1 °F 57.9 °F 63% 30.20 in 10.0 mi North - - N/A   Mostly Cloudy
7:54 PM 66.9 °F 57.0 °F 70% 30.20 in 10.0 mi Calm Calm - N/A   Clear
8:54 PM 64.9 °F 57.9 °F 78% 30.22 in 10.0 mi Variable 3.5 mph - N/A   Clear
9:54 PM 64.0 °F 57.9 °F 80% 30.21 in 10.0 mi Calm Calm - N/A   Clear
10:54 PM 62.1 °F 57.0 °F 84% 30.20 in 10.0 mi NNE 3.5 mph - N/A   Clear
11:54 PM 61.0 °F 57.9 °F 90% 30.21 in 10.0 mi NE 3.5 mph - N/A   Clear